Las Vegas, NM

3:19 PM MDT on May 24, 2017 (GMT -0600)
Las Vegas Municipal

Weather History for KLVS - November, 2012

Change the Weather History Date:

Friday, November 9, 2012

  Actual Average Record
Temperature  
Mean Temperature 52 °F -  
Max Temperature 61 °F 57 °F 73 °F (1978)
Min Temperature 43 °F 28 °F 5 °F (1950)
Degree Days  
Heating Degree Days 12    
Growing Degree Days 2 (Base 50)    
Moisture  
Dew Point 30 °F    
Average Humidity 47    
Maximum Humidity 76    
Minimum Humidity 29    
Precipitation  
Precipitation 0.00 in - - ()
Sea Level Pressure  
Sea Level Pressure 29.72 in    
Wind  
Wind Speed 18 mph (SW)    
Max Wind Speed 30 mph    
Max Gust Speed 39 mph    
Visibility 10 miles    
Events      
Averages and records for this station are not official NWS values.
T = Trace of Precipitation, MM = Missing Value Source: NWS Daily Summary

Daily Weather History Graph

Daily Weather History Graph

Search for Another Location

Airport or City:

Trip Planner

Search our weather history database for the weather conditions in past years. The results will help you decide how hot, cold, wet, or windy it might be!

Date:

Astronomy

Nov. 09, 2012 Rise Set
Actual Time 6:30 AM MST 4:57 PM MST
Civil Twilight 6:04 AM MST 5:24 PM MST
Nautical Twilight 5:33 AM MST 5:54 PM MST
Astronomical Twilight 5:03 AM MST 6:24 PM MST
Moon 1:41 AM MST (11/9) 2:04 PM MST (11/9)
Length of Visible Light 11h 20m
Length of Day
10h 26m
Waning Crescent, 22% of the Moon is Illuminated
Nov 9
Waning Crescent
Nov 13
New
Nov 20
First Quarter
Nov 28
Full
Dec 6
Last Quarter

Hourly Weather History & Observations

Time (MST) Temp. Windchill Dew Point Humidity Pressure Visibility Wind Dir Wind Speed Gust Speed Precip Events Conditions
12:53 AM 46.9 °F - 21.0 °F 36% 29.73 in 10.0 mi SW 15.0 mph - N/A   Clear
1:53 AM 44.1 °F 38.1 °F 19.9 °F 38% 29.76 in 10.0 mi South 11.5 mph - N/A   Clear
2:53 AM 46.0 °F 40.2 °F 18.0 °F 33% 29.74 in 10.0 mi SW 12.7 mph - N/A   Clear
3:53 AM 48.0 °F - 19.0 °F 32% 29.72 in 10.0 mi SW 19.6 mph - N/A   Clear
4:53 AM 46.0 °F 39.0 °F 19.0 °F 34% 29.76 in 10.0 mi SW 17.3 mph - N/A   Clear
5:53 AM 48.0 °F - 24.1 °F 39% 29.75 in 10.0 mi WSW 16.1 mph - N/A   Clear
6:53 AM 48.9 °F - 28.0 °F 44% 29.77 in 10.0 mi SW 15.0 mph - N/A   Clear
7:53 AM 54.0 °F - 30.0 °F 40% 29.76 in 10.0 mi WSW 11.5 mph 18.4 mph N/A   Clear
8:53 AM 57.0 °F - 28.0 °F 33% 29.76 in 10.0 mi West 20.7 mph 28.8 mph N/A   Clear
9:53 AM 59.0 °F - 27.0 °F 29% 29.77 in 10.0 mi West 27.6 mph 35.7 mph N/A   Clear
10:53 AM 61.0 °F - 28.0 °F 29% 29.76 in 10.0 mi West 25.3 mph 34.5 mph N/A   Clear
11:53 AM 61.0 °F - 30.0 °F 31% 29.73 in 10.0 mi West 29.9 mph 39.1 mph N/A   Clear
12:53 PM 61.0 °F - 30.0 °F 31% 29.68 in 10.0 mi WSW 24.2 mph 32.2 mph N/A   Partly Cloudy
1:53 PM 59.0 °F - 30.9 °F 35% 29.68 in 10.0 mi WSW 23.0 mph 35.7 mph N/A   Clear
2:53 PM 57.0 °F - 30.9 °F 37% 29.68 in 10.0 mi SW 24.2 mph 35.7 mph N/A   Clear
3:53 PM 54.0 °F - 34.0 °F 47% 29.70 in 10.0 mi West 18.4 mph - N/A   Clear
4:53 PM 50.0 °F - 35.1 °F 57% 29.73 in 10.0 mi SW 13.8 mph - N/A   Partly Cloudy
5:53 PM 46.0 °F 39.9 °F 37.0 °F 71% 29.73 in 10.0 mi SW 13.8 mph - N/A   Clear
6:53 PM 46.0 °F 39.3 °F 36.0 °F 68% 29.73 in 10.0 mi SSW 16.1 mph - N/A   Clear
7:53 PM 45.0 °F 37.1 °F 37.0 °F 74% 29.70 in 10.0 mi SSW 19.6 mph - N/A   Clear
8:53 PM 44.1 °F 36.2 °F 37.0 °F 76% 29.69 in 10.0 mi SSW 18.4 mph - N/A   Clear
9:53 PM 48.0 °F - 37.0 °F 66% 29.69 in 10.0 mi SW 28.8 mph 34.5 mph N/A   Clear
10:53 PM 46.9 °F - 36.0 °F 66% 29.67 in 10.0 mi SW 17.3 mph - N/A   Mostly Cloudy
11:53 PM 43.0 °F 35.7 °F 36.0 °F 76% 29.66 in 10.0 mi SSW 15.0 mph - N/A   Clear